Change the Weather History Date:

Friday, October 18, 2013

  Actual Average Record
Temperature  
Mean Temperature 47 °F -  
Max Temperature 65 °F 48 °F - ()
Min Temperature 29 °F 27 °F - ()
Degree Days  
Heating Degree Days 18    
Moisture  
Dew Point 23 °F    
Average Humidity 38    
Maximum Humidity 75    
Minimum Humidity 11    
Precipitation  
Precipitation 0.00 in 0.04 in - ()
Sea Level Pressure  
Sea Level Pressure 30.05 in    
Wind  
Wind Speed 6 mph ()    
Max Wind Speed 20 mph    
Max Gust Speed -    
Visibility 6.1 miles    
Events      
T = Trace of Precipitation, MM = Missing Value Source: Averaged Metar Reports

Daily Weather History Graph

Daily Weather History Graph

Search for Another Location

Airport or City:

Trip Planner

Search our weather history database for the weather conditions in past years. The results will help you decide how hot, cold, wet, or windy it might be!

Date:

Astronomy

Oct. 18, 2013 Rise Set
Actual Time 6:21 AM EEST 5:23 PM EEST
Civil Twilight 5:54 AM EEST 5:50 PM EEST
Nautical Twilight 5:22 AM EEST 6:22 PM EEST
Astronomical Twilight 4:50 AM EEST 6:54 PM EEST
Moon 4:59 PM EEST (10/18) 5:34 AM EEST (10/18)
Length of Visible Light 11h 56m
Length of Day
11h 01m
Full, 100% of the Moon is Illuminated
Oct 18
Full
Oct 19
Full
Oct 27
Last Quarter
Nov 3
New
Nov 10
First Quarter

Hourly Weather History & Observations

Time (EEST) Temp. Windchill Dew Point Humidity Pressure Visibility Wind Dir Wind Speed Gust Speed Precip Events Conditions
12:50 AM 35.6 °F 31.7 °F 21.2 °F 56% 30.15 in - NNE 4.6 mph - N/A   Clear
1:50 AM 33.8 °F 29.6 °F 21.2 °F 60% 30.15 in - ENE 4.6 mph - N/A   Clear
3:00 AM 35 °F - 20 °F 41%  in 6 mi NNE 1.2 mph - -  
3:50 AM 35.6 °F - 21.2 °F 56% 30.12 in - Variable 2.3 mph - N/A   Clear
4:50 AM 30.2 °F - 21.2 °F 69% 30.12 in - Variable 2.3 mph - N/A   Clear
5:50 AM 30.2 °F - 23.0 °F 75% 30.12 in - North 2.3 mph - N/A   Clear
6:50 AM 30.2 °F - 23.0 °F 75% 30.15 in - Variable 1.2 mph - N/A   Clear
7:50 AM 35.6 °F - 23.0 °F 60% 30.15 in - Calm Calm - N/A   Clear
8:50 AM 46.4 °F - 23.0 °F 40% 30.15 in - Calm Calm - N/A   Clear
9:00 AM 46 °F - 24 °F 29%  in 6 mi Calm Calm - -  
9:50 AM 53.6 °F - 24.8 °F 33% 30.12 in - Calm Calm - N/A   Clear
10:50 AM 59.0 °F - 26.6 °F 29% 30.12 in - Calm Calm - N/A   Clear
11:50 AM 64.4 °F - 21.2 °F 19% 30.09 in 6.2 mi SSW 18.4 mph - N/A   Scattered Clouds
12:50 PM 64.4 °F - 23.0 °F 21% 30.06 in 6.2 mi SSW 19.6 mph - N/A   Scattered Clouds
1:50 PM 62.6 °F - 23.0 °F 22% 30.04 in 6.2 mi SSW 17.3 mph - N/A   Mostly Cloudy
2:50 PM 64.4 °F - 23.0 °F 21% 30.04 in 6.2 mi South 17.3 mph - N/A   Mostly Cloudy
3:00 PM 64 °F - 23 °F 11%  in 6 mi South 17.3 mph - -   Partly Cloudy
3:50 PM 62.6 °F - 24.8 °F 24% 30.01 in 6.2 mi SSE 15.0 mph - N/A   Mostly Cloudy
4:50 PM 57.2 °F - 23.0 °F 27% 29.98 in 6.2 mi SE 18.4 mph - N/A   Scattered Clouds
5:50 PM 55.4 °F - 23.0 °F 29% 29.98 in 6.2 mi SSE 13.8 mph - N/A   Scattered Clouds
6:50 PM 55.4 °F - 24.8 °F 31% 29.95 in 6.2 mi SE 18.4 mph - N/A   Scattered Clouds
7:50 PM 53.6 °F - 24.8 °F 33% 29.95 in 6.2 mi SE 18.4 mph - N/A   Scattered Clouds
8:50 PM 53.6 °F - 23.0 °F 30% 29.95 in 6.2 mi Variable 5.8 mph - N/A   Scattered Clouds
9:00 PM 54 °F - 23 °F 18%  in 6 mi NW 5.8 mph - -   Partly Cloudy
9:50 PM 51.8 °F - 23.0 °F 33% 29.95 in 6.2 mi West 3.5 mph - N/A   Partly Cloudy
10:50 PM 50.0 °F - 23.0 °F 35% 29.95 in - Calm Calm - N/A   Clear
11:50 PM 44.6 °F - 24.8 °F 46% 29.92 in - Calm Calm - N/A   Clear